QPF
0.02 0.02 0.02 0.02 0.01 0.01 0.01 0.01 0.01 0.00 0.00 0.00 0.00 0.00 0.00 0.00 0.00 0.00 0.00 0.00 0.00 0.00 0.00 0.00 0.00 0.00 0.00 0.00 0.00 0.00 0.00 0.00 0.00 0.00 0.00 0.00 0.00 0.00 0.00 0.00 0.00 0.01 0.01
0.01 0.01 0.01 0.01 0.01 0.01 0.01 0.00 0.00 0.00 0.00 0.00 0.00 0.00 0.00 0.00 0.00 0.00 0.00 0.00 0.00 0.00 0.00 0.00 0.00 0.00 0.00 0.00 0.01 0.01 0.01 0.01 0.01 0.01 0.01 0.00 0.01 0.01 0.01 0.02 0.01 0.01 0.01
0.01 0.01 0.01 0.01 0.01 0.01 0.00 0.00 0.00 0.00 0.00 0.00 0.00 0.00 0.00 0.00 0.00 0.00 0.00 0.00 0.00 0.00 0.00 0.00 0.00 0.01 0.01 0.01 0.01 0.01 0.01 0.02 0.02 0.03 0.02 0.02 0.01 0.01 0.03 0.03 0.02 0.04 0.02
0.00 0.00 0.00 0.01 0.01 0.01 0.01 0.00 0.00 0.00 0.00 0.00 0.00 0.00 0.00 0.00 0.00 0.00 0.00 0.00 0.00 0.00 0.01 0.01 0.01 0.01 0.01 0.02 0.01 0.02 0.02 0.03 0.03 0.03 0.03 0.02 0.02 0.03 0.05 0.05 0.04 0.04 0.03
0.00 0.00 0.00 0.00 0.00 0.00 0.00 0.00 0.00 0.00 0.00 0.00 0.00 0.00 0.00 0.00 0.00 0.00 0.00 0.00 0.00 0.01 0.01 0.01 0.01 0.01 0.01 0.00 0.00 0.01 0.02 0.03 0.03 0.04 0.04 0.03 0.03 0.05 0.06 0.06 0.05 0.04 0.03
0.01 0.00 0.00 0.00 0.00 0.00 0.00 0.01 0.01 0.01 0.01 0.01 0.00 0.00 0.00 0.00 0.00 0.00 0.00 0.00 0.00 0.01 0.01 0.02 0.02 0.01 0.01 0.01 0.01 0.01 0.01 0.02 0.03 0.05 0.05 0.05 0.05 0.06 0.07 0.06 0.06 0.05 0.03
0.00 0.00 0.00 0.00 0.00 0.00 0.01 0.01 0.01 0.01 0.01 0.01 0.01 0.01 0.01 0.00 0.00 0.00 0.00 0.00 0.00 0.01 0.02 0.02 0.02 0.02 0.02 0.03 0.02 0.01 0.01 0.03 0.04 0.06 0.07 0.07 0.07 0.07 0.07 0.06 0.05 0.05 0.04
0.00 0.00 0.00 0.00 0.01 0.01 0.01 0.01 0.01 0.01 0.01 0.01 0.01 0.01 0.02 0.01 0.00 0.00 0.00 0.00 0.01 0.01 0.02 0.02 0.03 0.04 0.03 0.01 0.00 0.01 0.03 0.06 0.06 0.06 0.07 0.06 0.05 0.04 0.04 0.04 0.04 0.04 0.03
0.00 0.00 0.01 0.01 0.01 0.01 0.01 0.01 0.01 0.01 0.01 0.01 0.01 0.01 0.02 0.02 0.00 0.00 0.00 0.00 0.01 0.01 0.01 0.02 0.02 0.04 0.01 0.00 0.00 0.02 0.03 0.05 0.03 0.02 0.02 0.02 0.01 0.01 0.01 0.02 0.04 0.05 0.04
0.01 0.01 0.01 0.01 0.01 0.01 0.01 0.01 0.02 0.02 0.02 0.02 0.01 0.01 0.02 0.02 0.00 0.00 0.00 0.00 0.01 0.01 0.02 0.03 0.03 0.01 0.00 0.00 0.00 0.02 0.03 0.03 0.02 0.02 0.04 0.05 0.05 0.04 0.03 0.04 0.06 0.06 0.06
0.01 0.01 0.01 0.01 0.00 0.01 0.01 0.02 0.03 0.03 0.03 0.03 0.02 0.02 0.02 0.01 0.00 0.00 0.00 0.00 0.01 0.01 0.02 0.03 0.05 0.00 0.00 0.00 0.00 0.02 0.03 0.01 0.02 0.05 0.06 0.05 0.04 0.05 0.05 0.07 0.08 0.08 0.07
0.02 0.02 0.01 0.01 0.00 0.01 0.02 0.04 0.05 0.05 0.04 0.03 0.03 0.02 0.02 0.02 0.01 0.00 0.00 0.00 0.00 0.01 0.03 0.04 0.03 0.00 0.00 0.00 0.00 0.01 0.00 0.01 0.05 0.07 0.06 0.04 0.03 0.03 0.04 0.05 0.07 0.07 0.07
0.03 0.02 0.01 0.01 0.01 0.01 0.03 0.05 0.05 0.05 0.04 0.03 0.03 0.02 0.02 0.02 0.02 0.00 0.00 0.00 0.00 0.01 0.02 0.01 0.00 0.00 0.01 0.03 0.03 0.01 0.03 0.07 0.08 0.07 0.05 0.04 0.04 0.04 0.04 0.05 0.05 0.06 0.06
0.02 0.01 0.01 0.02 0.03 0.04 0.05 0.04 0.05 0.04 0.02 0.02 0.02 0.02 0.02 0.02 0.02 0.01 0.00 0.01 0.01 0.01 0.01 0.02 0.02 0.02 0.02 0.04 0.05 0.06 0.08 0.08 0.06 0.06 0.05 0.04 0.04 0.04 0.04 0.04 0.04 0.05 0.04
0.03 0.02 0.02 0.02 0.03 0.05 0.06 0.03 0.02 0.02 0.00 0.00 0.01 0.01 0.01 0.01 0.01 0.00 0.00 0.00 0.00 0.00 0.00 0.02 0.06 0.06 0.05 0.05 0.06 0.07 0.08 0.07 0.06 0.06 0.05 0.04 0.03 0.03 0.04 0.04 0.05 0.04 0.03
0.04 0.03 0.01 0.01 0.02 0.03 0.05 0.05 0.01 0.00 0.00 0.00 0.00 0.00 0.00 0.00 0.00 0.00 0.00 0.00 0.00 0.01 0.01 0.04 0.04 0.04 0.03 0.03 0.04 0.05 0.06 0.06 0.06 0.05 0.04 0.04 0.03 0.03 0.03 0.04 0.04 0.03 0.03
0.02 0.02 0.01 0.01 0.01 0.01 0.02 0.05 0.06 0.03 0.00 0.00 0.00 0.00 0.00 0.00 0.00 0.00 0.00 0.01 0.01 0.01 0.03 0.04 0.03 0.03 0.04 0.04 0.05 0.05 0.05 0.06 0.06 0.05 0.04 0.04 0.03 0.02 0.02 0.02 0.02 0.02 0.02
0.01 0.02 0.01 0.01 0.01 0.01 0.01 0.02 0.03 0.05 0.04 0.03 0.01 0.00 0.00 0.00 0.01 0.01 0.01 0.01 0.02 0.02 0.03 0.03 0.03 0.04 0.04 0.04 0.05 0.05 0.06 0.06 0.06 0.06 0.04 0.03 0.02 0.02 0.02 0.02 0.02 0.01 0.02
0.01 0.02 0.01 0.01 0.01 0.00 0.01 0.01 0.01 0.03 0.04 0.04 0.03 0.02 0.00 0.01 0.02 0.01 0.01 0.02 0.02 0.02 0.02 0.03 0.04 0.04 0.05 0.05 0.06 0.06 0.07 0.07 0.07 0.06 0.05 0.03 0.02 0.01 0.02 0.02 0.02 0.01 0.02
0.01 0.00 0.00 0.00 0.00 0.00 0.00 0.00 0.01 0.03 0.03 0.02 0.02 0.01 0.01 0.02 0.04 0.03 0.03 0.02 0.02 0.02 0.02 0.02 0.03 0.05 0.06 0.06 0.05 0.06 0.06 0.06 0.07 0.07 0.06 0.04 0.02 0.01 0.01 0.02 0.02 0.02 0.02
0.00 0.00 0.00 0.00 0.00 0.00 0.00 0.00 0.01 0.02 0.02 0.02 0.01 0.01 0.01 0.03 0.04 0.03 0.03 0.02 0.02 0.01 0.01 0.02 0.02 0.04 0.04 0.04 0.04 0.04 0.04 0.05 0.06 0.07 0.07 0.05 0.02 0.01 0.01 0.01 0.01 0.02 0.02
0.00 0.00 0.00 0.00 0.00 0.00 0.00 0.00 0.00 0.01 0.01 0.02 0.02 0.01 0.01 0.02 0.03 0.03 0.02 0.01 0.01 0.01 0.02 0.02 0.03 0.03 0.04 0.03 0.03 0.02 0.02 0.02 0.04 0.06 0.08 0.06 0.03 0.01 0.00 0.01 0.01 0.01 0.01
0.00 0.00 0.00 0.00 0.00 0.00 0.00 0.00 0.00 0.00 0.01 0.01 0.02 0.02 0.02 0.03 0.02 0.02 0.02 0.02 0.02 0.02 0.03 0.03 0.03 0.04 0.03 0.03 0.02 0.01 0.00 0.00 0.01 0.04 0.08 0.08 0.05 0.01 0.00 0.01 0.01 0.01 0.01
0.00 0.00 0.00 0.00 0.00 0.00 0.00 0.00 0.00 0.00 0.01 0.01 0.01 0.01 0.01 0.02 0.02 0.02 0.02 0.02 0.02 0.02 0.03 0.03 0.03 0.03 0.02 0.01 0.00 0.00 0.00 0.00 0.00 0.02 0.05 0.08 0.06 0.02 0.01 0.01 0.01 0.02 0.02
0.00 0.00 0.00 0.00 0.00 0.00 0.00 0.00 0.00 0.00 0.01 0.01 0.01 0.01 0.01 0.01 0.02 0.01 0.01 0.01 0.01 0.01 0.02 0.03 0.03 0.01 0.00 0.00 0.00 0.00 0.00 0.00 0.00 0.01 0.03 0.07 0.05 0.02 0.02 0.02 0.02 0.02 0.02
0.00 0.00 0.00 0.00 0.00 0.00 0.00 0.00 0.00 0.00 0.01 0.01 0.01 0.01 0.01 0.01 0.01 0.01 0.01 0.01 0.02 0.02 0.03 0.03 0.02 0.00 0.00 0.00 0.00 0.00 0.00 0.00 0.00 0.01 0.02 0.04 0.03 0.02 0.03 0.03 0.02 0.02 0.02
MSLP
1017.71 1018.19 1018.66 1019.07 1019.41 1019.68 1019.91 1020.10 1020.29 1020.49 1020.71 1020.94 1021.15 1021.32 1021.45 1021.52 1021.54 1021.52 1021.48 1021.45 1021.43 1021.44 1021.46 1021.48 1021.49 1021.44 1021.34 1021.17 1020.93 1020.65 1020.33 1020.01 1019.70 1019.40 1019.14 1018.90 1018.67 1018.45 1018.22 1017.98 1017.73 1017.46 1017.20
1018.69 1019.12 1019.52 1019.86 1020.12 1020.33 1020.49 1020.64 1020.80 1020.97 1021.16 1021.36 1021.56 1021.73 1021.85 1021.91 1021.92 1021.87 1021.80 1021.70 1021.61 1021.53 1021.47 1021.40 1021.33 1021.24 1021.12 1020.96 1020.77 1020.56 1020.32 1020.08 1019.83 1019.59 1019.34 1019.09 1018.82 1018.53 1018.22 1017.89 1017.53 1017.16 1016.78
1019.64 1020.01 1020.34 1020.60 1020.79 1020.94 1021.05 1021.16 1021.29 1021.44 1021.62 1021.81 1022.00 1022.16 1022.28 1022.34 1022.33 1022.27 1022.16 1022.02 1021.86 1021.70 1021.56 1021.41 1021.28 1021.14 1021.00 1020.85 1020.69 1020.52 1020.34 1020.15 1019.94 1019.72 1019.48 1019.20 1018.88 1018.52 1018.13 1017.71 1017.27 1016.81 1016.35
1020.53 1020.84 1021.09 1021.28 1021.41 1021.50 1021.58 1021.66 1021.77 1021.91 1022.08 1022.27 1022.45 1022.61 1022.72 1022.78 1022.76 1022.68 1022.54 1022.36 1022.16 1021.94 1021.72 1021.51 1021.31 1021.13 1020.96 1020.80 1020.65 1020.50 1020.34 1020.17 1019.97 1019.74 1019.47 1019.15 1018.78 1018.36 1017.91 1017.42 1016.91 1016.40 1015.88
1021.33 1021.57 1021.76 1021.88 1021.96 1022.01 1022.05 1022.11 1022.20 1022.33 1022.50 1022.68 1022.86 1023.02 1023.13 1023.18 1023.16 1023.07 1022.91 1022.70 1022.45 1022.19 1021.92 1021.65 1021.40 1021.17 1020.96 1020.78 1020.61 1020.44 1020.27 1020.08 1019.86 1019.60 1019.28 1018.91 1018.48 1018.02 1017.51 1016.99 1016.46 1015.92 1015.39
1021.99 1022.18 1022.30 1022.37 1022.40 1022.42 1022.44 1022.48 1022.56 1022.68 1022.83 1023.00 1023.17 1023.32 1023.43 1023.47 1023.45 1023.35 1023.19 1022.96 1022.69 1022.40 1022.08 1021.77 1021.47 1021.20 1020.94 1020.71 1020.50 1020.29 1020.08 1019.84 1019.58 1019.26 1018.89 1018.47 1018.00 1017.50 1016.97 1016.44 1015.92 1015.40 1014.89
1022.49 1022.62 1022.70 1022.73 1022.72 1022.71 1022.71 1022.74 1022.80 1022.90 1023.04 1023.19 1023.34 1023.48 1023.57 1023.61 1023.59 1023.50 1023.33 1023.11 1022.83 1022.51 1022.17 1021.83 1021.48 1021.16 1020.85 1020.56 1020.29 1020.02 1019.75 1019.45 1019.12 1018.75 1018.33 1017.87 1017.37 1016.86 1016.34 1015.83 1015.34 1014.87 1014.41
1022.81 1022.90 1022.94 1022.94 1022.92 1022.88 1022.87 1022.87 1022.92 1023.00 1023.10 1023.23 1023.36 1023.48 1023.56 1023.59 1023.57 1023.48 1023.33 1023.11 1022.84 1022.52 1022.16 1021.79 1021.40 1021.03 1020.66 1020.31 1019.97 1019.64 1019.30 1018.94 1018.55 1018.13 1017.67 1017.19 1016.68 1016.18 1015.69 1015.22 1014.78 1014.37 1013.98
1022.98 1023.04 1023.06 1023.04 1023.00 1022.96 1022.92 1022.91 1022.93 1022.98 1023.06 1023.16 1023.26 1023.35 1023.42 1023.46 1023.44 1023.36 1023.23 1023.02 1022.75 1022.43 1022.07 1021.67 1021.25 1020.83 1020.41 1020.00 1019.59 1019.19 1018.79 1018.38 1017.95 1017.50 1017.02 1016.54 1016.05 1015.57 1015.11 1014.69 1014.31 1013.96 1013.62
1023.05 1023.09 1023.10 1023.07 1023.02 1022.97 1022.92 1022.90 1022.89 1022.92 1022.97 1023.04 1023.11 1023.19 1023.25 1023.28 1023.27 1023.21 1023.09 1022.90 1022.64 1022.32 1021.94 1021.52 1021.07 1020.60 1020.13 1019.66 1019.20 1018.75 1018.31 1017.86 1017.41 1016.95 1016.48 1016.01 1015.55 1015.11 1014.69 1014.32 1013.97 1013.66 1013.36
1023.08 1023.11 1023.11 1023.08 1023.03 1022.97 1022.92 1022.89 1022.87 1022.88 1022.90 1022.95 1023.01 1023.08 1023.13 1023.17 1023.17 1023.12 1023.00 1022.82 1022.57 1022.24 1021.84 1021.39 1020.90 1020.39 1019.88 1019.36 1018.86 1018.38 1017.91 1017.45 1017.00 1016.55 1016.11 1015.67 1015.25 1014.84 1014.47 1014.12 1013.80 1013.50 1013.21
1023.10 1023.12 1023.12 1023.09 1023.05 1023.00 1022.95 1022.92 1022.90 1022.90 1022.93 1022.97 1023.03 1023.09 1023.15 1023.19 1023.19 1023.15 1023.03 1022.84 1022.57 1022.22 1021.80 1021.31 1020.78 1020.23 1019.67 1019.12 1018.60 1018.10 1017.62 1017.18 1016.75 1016.33 1015.93 1015.53 1015.14 1014.77 1014.42 1014.09 1013.78 1013.47 1013.16
1023.12 1023.13 1023.13 1023.11 1023.08 1023.05 1023.02 1023.01 1023.00 1023.02 1023.06 1023.11 1023.19 1023.26 1023.32 1023.37 1023.37 1023.31 1023.18 1022.97 1022.67 1022.27 1021.80 1021.27 1020.70 1020.10 1019.51 1018.94 1018.40 1017.90 1017.44 1017.02 1016.63 1016.26 1015.90 1015.54 1015.20 1014.86 1014.52 1014.19 1013.87 1013.54 1013.20
1023.12 1023.13 1023.13 1023.13 1023.12 1023.11 1023.11 1023.12 1023.16 1023.21 1023.28 1023.36 1023.46 1023.55 1023.63 1023.67 1023.67 1023.59 1023.42 1023.16 1022.81 1022.36 1021.83 1021.24 1020.62 1019.98 1019.36 1018.77 1018.24 1017.76 1017.32 1016.94 1016.59 1016.27 1015.95 1015.64 1015.33 1015.01 1014.69 1014.36 1014.02 1013.67 1013.30
1023.06 1023.07 1023.08 1023.08 1023.10 1023.12 1023.16 1023.22 1023.30 1023.40 1023.52 1023.66 1023.79 1023.91 1024.00 1024.04 1024.01 1023.89 1023.68 1023.36 1022.93 1022.42 1021.82 1021.17 1020.50 1019.83 1019.19 1018.60 1018.07 1017.61 1017.22 1016.88 1016.57 1016.29 1016.02 1015.74 1015.46 1015.16 1014.84 1014.52 1014.18 1013.82 1013.44
1022.92 1022.92 1022.93 1022.95 1022.99 1023.04 1023.13 1023.24 1023.38 1023.54 1023.72 1023.90 1024.08 1024.22 1024.32 1024.36 1024.30 1024.14 1023.87 1023.48 1022.98 1022.39 1021.73 1021.03 1020.32 1019.62 1018.97 1018.39 1017.88 1017.46 1017.09 1016.79 1016.52 1016.27 1016.03 1015.78 1015.52 1015.23 1014.93 1014.61 1014.28 1013.94 1013.58
1022.69 1022.68 1022.68 1022.71 1022.76 1022.85 1022.98 1023.14 1023.34 1023.56 1023.80 1024.03 1024.25 1024.42 1024.53 1024.56 1024.47 1024.27 1023.94 1023.49 1022.92 1022.27 1021.56 1020.82 1020.08 1019.38 1018.73 1018.17 1017.69 1017.29 1016.96 1016.68 1016.44 1016.21 1015.98 1015.74 1015.48 1015.21 1014.92 1014.62 1014.32 1014.01 1013.70
1022.40 1022.36 1022.36 1022.38 1022.45 1022.56 1022.72 1022.92 1023.17 1023.44 1023.74 1024.02 1024.28 1024.48 1024.59 1024.61 1024.50 1024.26 1023.88 1023.38 1022.77 1022.08 1021.33 1020.58 1019.84 1019.14 1018.52 1017.98 1017.53 1017.16 1016.85 1016.58 1016.35 1016.12 1015.88 1015.64 1015.37 1015.10 1014.82 1014.54 1014.28 1014.02 1013.77
1022.11 1022.05 1022.02 1022.03 1022.09 1022.21 1022.39 1022.63 1022.91 1023.23 1023.56 1023.89 1024.17 1024.39 1024.52 1024.53 1024.40 1024.14 1023.74 1023.21 1022.57 1021.87 1021.12 1020.38 1019.66 1019.00 1018.41 1017.90 1017.48 1017.13 1016.83 1016.56 1016.31 1016.06 1015.79 1015.52 1015.23 1014.94 1014.66 1014.40 1014.17 1013.97 1013.79
1021.89 1021.79 1021.73 1021.72 1021.76 1021.88 1022.07 1022.32 1022.63 1022.97 1023.33 1023.69 1024.00 1024.23 1024.36 1024.37 1024.24 1023.97 1023.57 1023.04 1022.41 1021.72 1021.00 1020.29 1019.62 1019.00 1018.46 1017.99 1017.59 1017.25 1016.95 1016.66 1016.37 1016.08 1015.76 1015.44 1015.11 1014.79 1014.49 1014.24 1014.02 1013.87 1013.75
1021.78 1021.64 1021.55 1021.51 1021.54 1021.65 1021.83 1022.08 1022.40 1022.75 1023.13 1023.50 1023.82 1024.06 1024.20 1024.22 1024.10 1023.84 1023.45 1022.94 1022.35 1021.70 1021.04 1020.38 1019.76 1019.20 1018.71 1018.28 1017.90 1017.55 1017.23 1016.91 1016.57 1016.21 1015.83 1015.44 1015.05 1014.68 1014.36 1014.08 1013.88 1013.74 1013.66
1021.81 1021.65 1021.53 1021.46 1021.47 1021.56 1021.73 1021.97 1022.28 1022.64 1023.02 1023.39 1023.71 1023.96 1024.11 1024.13 1024.03 1023.79 1023.43 1022.97 1022.42 1021.84 1021.24 1020.65 1020.10 1019.59 1019.14 1018.74 1018.37 1018.01 1017.66 1017.29 1016.89 1016.46 1016.01 1015.55 1015.09 1014.66 1014.29 1013.99 1013.76 1013.62 1013.55
1021.96 1021.78 1021.65 1021.57 1021.56 1021.64 1021.80 1022.03 1022.33 1022.68 1023.04 1023.40 1023.72 1023.96 1024.12 1024.15 1024.07 1023.86 1023.54 1023.13 1022.64 1022.12 1021.59 1021.07 1020.57 1020.12 1019.70 1019.32 1018.95 1018.58 1018.19 1017.77 1017.31 1016.81 1016.29 1015.75 1015.23 1014.74 1014.32 1013.97 1013.71 1013.55 1013.46
1022.18 1022.00 1021.87 1021.79 1021.79 1021.86 1022.01 1022.24 1022.52 1022.85 1023.20 1023.54 1023.84 1024.08 1024.23 1024.28 1024.21 1024.03 1023.75 1023.39 1022.97 1022.51 1022.04 1021.57 1021.13 1020.72 1020.32 1019.94 1019.57 1019.17 1018.75 1018.28 1017.77 1017.21 1016.63 1016.04 1015.46 1014.93 1014.45 1014.07 1013.77 1013.57 1013.46
1022.41 1022.26 1022.14 1022.08 1022.09 1022.17 1022.33 1022.54 1022.82 1023.13 1023.46 1023.78 1024.06 1024.28 1024.43 1024.48 1024.43 1024.28 1024.04 1023.72 1023.35 1022.95 1022.53 1022.11 1021.70 1021.31 1020.93 1020.55 1020.16 1019.74 1019.29 1018.78 1018.23 1017.64 1017.02 1016.39 1015.78 1015.22 1014.72 1014.30 1013.97 1013.74 1013.60
1022.60 1022.49 1022.41 1022.39 1022.43 1022.53 1022.69 1022.91 1023.17 1023.46 1023.77 1024.06 1024.32 1024.53 1024.67 1024.72 1024.69 1024.57 1024.36 1024.09 1023.76 1023.40 1023.02 1022.64 1022.26 1021.88 1021.50 1021.12 1020.71 1020.27 1019.79 1019.27 1018.70 1018.09 1017.45 1016.82 1016.20 1015.62 1015.11 1014.68 1014.34 1014.09 1013.92
Thickness
5650 5647 5643 5638 5633 5628 5622 5616 5611 5606 5601 5596 5591 5586 5582 5577 5572 5567 5563 5559 5555 5550 5545 5541 5536 5532 5527 5522 5518 5515 5512 5509 5507 5507 5502 5498 5494 5489 5486 5482 5479 5477 5475
5634 5630 5625 5620 5616 5611 5605 5600 5594 5589 5585 5579 5574 5570 5565 5560 5555 5550 5545 5541 5537 5532 5528 5523 5519 5515 5510 5506 5502 5498 5495 5491 5489 5488 5486 5482 5479 5475 5473 5470 5467 5465 5464
5617 5612 5607 5602 5597 5592 5587 5582 5577 5572 5567 5562 5557 5552 5547 5542 5537 5532 5526 5522 5519 5514 5510 5507 5503 5499 5495 5491 5487 5484 5481 5478 5474 5471 5471 5469 5466 5464 5461 5459 5456 5454 5453
5598 5593 5587 5582 5578 5573 5569 5564 5559 5554 5549 5544 5539 5534 5529 5523 5517 5511 5507 5504 5501 5498 5495 5492 5489 5486 5483 5479 5475 5471 5468 5464 5461 5459 5458 5457 5455 5454 5451 5448 5447 5446 5444
5579 5573 5568 5564 5559 5555 5550 5545 5541 5536 5532 5526 5521 5516 5511 5504 5495 5490 5486 5486 5483 5482 5480 5479 5477 5475 5472 5467 5463 5459 5454 5452 5450 5448 5448 5447 5446 5444 5441 5439 5438 5438 5438
5560 5555 5551 5547 5543 5538 5533 5528 5523 5518 5513 5508 5503 5498 5492 5485 5476 5472 5469 5468 5467 5467 5467 5466 5465 5464 5462 5457 5452 5448 5444 5442 5441 5439 5438 5437 5438 5436 5435 5433 5431 5431 5433
5544 5540 5535 5531 5526 5521 5517 5511 5506 5500 5495 5490 5486 5481 5475 5465 5460 5456 5454 5453 5454 5455 5454 5453 5453 5453 5449 5445 5442 5440 5439 5438 5436 5434 5433 5433 5433 5432 5431 5429 5427 5425 5425
5529 5525 5520 5516 5510 5505 5500 5494 5488 5484 5479 5475 5470 5465 5459 5451 5445 5442 5440 5441 5443 5443 5443 5442 5441 5439 5437 5432 5431 5433 5434 5434 5433 5434 5432 5432 5432 5431 5428 5426 5424 5423 5422
5515 5510 5505 5500 5494 5489 5483 5478 5473 5468 5464 5459 5455 5450 5445 5438 5432 5428 5426 5428 5431 5431 5431 5431 5430 5429 5425 5423 5424 5427 5429 5431 5432 5432 5432 5431 5431 5430 5428 5424 5422 5420 5420
5501 5495 5490 5484 5479 5474 5468 5464 5459 5454 5450 5445 5441 5436 5432 5426 5419 5416 5413 5416 5418 5418 5420 5421 5421 5419 5418 5418 5419 5422 5425 5428 5430 5431 5432 5433 5433 5431 5428 5424 5420 5417 5416
5488 5482 5476 5471 5466 5461 5456 5450 5445 5441 5436 5432 5429 5424 5420 5415 5410 5405 5403 5404 5405 5406 5410 5413 5414 5414 5415 5417 5418 5421 5424 5426 5428 5430 5432 5433 5432 5431 5428 5424 5420 5416 5413
5477 5471 5465 5460 5455 5450 5443 5438 5433 5428 5425 5422 5418 5414 5410 5405 5401 5398 5396 5396 5396 5399 5404 5407 5410 5412 5415 5419 5422 5425 5426 5427 5429 5431 5432 5432 5431 5429 5427 5424 5421 5417 5414
5467 5461 5455 5449 5443 5438 5432 5427 5423 5419 5415 5412 5409 5405 5402 5398 5394 5392 5391 5392 5394 5397 5401 5404 5408 5413 5417 5422 5426 5427 5428 5430 5431 5432 5432 5431 5430 5428 5426 5423 5421 5418 5416
5458 5452 5447 5441 5435 5429 5424 5420 5415 5411 5407 5405 5401 5398 5395 5392 5389 5386 5387 5390 5393 5397 5399 5404 5410 5416 5420 5424 5427 5430 5431 5432 5433 5432 5432 5432 5430 5428 5426 5423 5420 5418 5416
5450 5445 5440 5435 5431 5424 5419 5412 5409 5402 5397 5394 5392 5390 5388 5387 5383 5381 5382 5387 5389 5393 5396 5404 5412 5417 5422 5426 5429 5431 5433 5434 5435 5434 5433 5432 5430 5428 5425 5423 5420 5418 5415
5445 5440 5436 5433 5428 5424 5418 5410 5402 5398 5393 5389 5385 5383 5384 5382 5382 5384 5386 5389 5393 5396 5400 5407 5413 5417 5421 5425 5428 5432 5434 5435 5436 5436 5434 5432 5430 5428 5425 5423 5421 5418 5415
5442 5437 5433 5431 5427 5423 5419 5414 5405 5396 5391 5388 5386 5384 5383 5384 5385 5387 5390 5394 5398 5402 5405 5410 5414 5418 5422 5426 5430 5433 5436 5438 5438 5437 5436 5434 5432 5430 5427 5425 5422 5419 5417
5443 5438 5432 5431 5427 5424 5421 5418 5412 5405 5398 5394 5389 5387 5387 5388 5390 5392 5394 5398 5403 5407 5410 5413 5417 5420 5425 5429 5433 5436 5438 5440 5441 5440 5439 5437 5435 5433 5430 5427 5424 5421 5418
5445 5440 5435 5432 5429 5426 5422 5419 5414 5408 5404 5400 5396 5393 5392 5393 5394 5396 5398 5401 5405 5408 5412 5415 5419 5424 5428 5433 5436 5439 5441 5442 5443 5443 5442 5441 5439 5437 5434 5431 5427 5423 5421
5447 5439 5436 5434 5432 5428 5424 5420 5415 5411 5407 5403 5400 5398 5397 5398 5399 5400 5403 5405 5408 5411 5414 5418 5422 5427 5432 5436 5439 5442 5443 5444 5444 5445 5445 5444 5443 5441 5438 5435 5432 5429 5425
5452 5444 5436 5436 5433 5429 5426 5422 5418 5414 5410 5407 5403 5400 5398 5400 5402 5404 5406 5408 5411 5414 5417 5421 5426 5431 5435 5438 5441 5444 5445 5445 5445 5446 5446 5447 5446 5445 5442 5440 5438 5434 5431
5451 5449 5444 5438 5434 5429 5426 5424 5421 5417 5413 5410 5407 5405 5402 5404 5405 5406 5408 5411 5414 5417 5421 5424 5428 5433 5436 5439 5442 5443 5444 5444 5445 5446 5447 5449 5449 5448 5446 5444 5441 5439 5436
5453 5451 5446 5440 5437 5428 5428 5426 5423 5420 5417 5414 5412 5410 5409 5408 5408 5409 5411 5414 5417 5420 5424 5428 5431 5434 5437 5439 5441 5442 5441 5441 5442 5444 5447 5449 5450 5450 5449 5446 5445 5442 5439
5455 5451 5447 5442 5439 5434 5431 5428 5425 5422 5419 5416 5413 5412 5411 5410 5410 5412 5414 5416 5419 5423 5426 5429 5432 5435 5437 5438 5440 5440 5439 5440 5442 5445 5448 5450 5452 5452 5451 5449 5447 5446 5443
5455 5451 5448 5443 5439 5436 5432 5428 5425 5422 5420 5417 5415 5413 5412 5411 5412 5413 5415 5418 5422 5425 5428 5430 5432 5433 5435 5436 5437 5439 5441 5444 5446 5447 5450 5452 5453 5453 5452 5451 5449 5448 5446
5455 5451 5448 5443 5438 5435 5432 5428 5425 5422 5419 5417 5416 5414 5413 5413 5413 5414 5417 5419 5423 5425 5427 5429 5430 5431 5432 5434 5436 5439 5443 5446 5448 5450 5452 5453 5454 5452 5452 5451 5451 5449 5447